sat.trackr.live / text

‹ back to catalog

IONOSFERA-M 1

NORAD 61735 · 2024-199A

PAYLOAD ACTIVE UNKNOWN

§ Identity

Operator
Country
CIS
Launch date
2024-11-04
Launch site
VOSTO
Launch vehicle
Mass (kg)
RCS (m²)

Purposes: earth_obs

External: N2YO · Heavens-Above · Gunter

§ Orbital elements

Epoch: 2026-09-19T22:08:07.581408Z

Period
101.21 min
Inclination
98.7008°
Eccentricity
0.0000681
Mean motion
14.22768887 rev/d
Perigee alt
815.5 km
Apogee alt
816.5 km
Semi-major
7,194.1 km
B*
2.5347e-5
RAAN
135.0268°
Arg perigee
147.2665°
Mean anomaly
212.8555°
Rev number
14,117

§ Raw data

IONOSFERA-M 11 61735U 24199A   26262.92230997  .00000013  00000+0  25347-4 0  99942 61735  98.7008 135.0268 0000681 147.2665 212.8555 14.22768887141172

JSON: /api/v1/satellites/61735 · /tle

For live sub-satellite position, see the globe view (requires WebGL).

§ Visibility from observer

Set your observer location to see the next 7 days of passes ≥ 10°. The values pass through the URL so the page stays shareable.

No JS? Fill the form by hand. The geolocation button needs JavaScript.

§ Radio — SatNOGS DB

ModeDescriptionDownlinkUplink
CW MAYAK (150 MHz) 149.970 MHz
CW MAYAK (400 MHz) 399.920 MHz

2 transmitters · refreshed weekly from db.satnogs.org